User: anonymous   Login
Location: ??
(35.5052°N, 139.7262°E)
Time: 12:56:27
(UTC+00:00)
Language:

Cosmos 1802 Rocket - Orbit

View from above orbital plane
View from above orbital plane
View from above satellite
View from above satellite

Ground track
Ground track

The orbit data is extracted from the following two-line orbital elements,

1 17160U 86093B   21265.52481929  .00000044  00000-0  29853-4 0  9996
2 17160  82.9318 348.2249 0040084 124.8370 249.2216 13.74652709746693
Epoch (UTC): 22 September 2021 12:35:44
Eccentricity: 0.0040084
inclination: 82.9318°
perigee height: 953 km
apogee height: 1012 km
right ascension of ascending node: 348.2249°
argument of perigee: 124.8370°
revolutions per day: 13.74652709
mean anomaly at epoch: 249.2216°
orbit number at epoch: 74669

The dashed part of the orbit path shows where the satellite is in the earth's shadow,  

DLR